^^
Grace C. Lehan Memorial Weather Station Historical Data
Daily Summary for March 8, 2021 Units:  Metric    English   Both
Daily Weekly Monthly Yearly
  High: Low: Average:
Temperature: 0.4 °C 0.2 °C 0.3 °C
Dew Point: -3.5 °C -4.1 °C -3.7 °C
Humidity: 75% 72.5% 74%
Wind Speed: 0.6km/h 0km/h 0.2km/h
Wind Gust: 4.8km/h - -
Wind- - WSW
Pressure: 1020.9 hPa 1020.5 hPa -
Precipitation: 0 mm    
 
 
Tabular Data for March 8, 2021
Time Temperature Dew Point Pressure Wind Wind Speed Wind Gust Humidity Rainfall Rate (Hourly) solar
00:04 0.2 °C -3.7 °C 1020.9 hPa Calm     74.7% 0 mm 0 W/m2
00:09 0.2 °C -3.9 °C 1020.9 hPa Calm     74% 0 mm 0 W/m2
00:14 0.2 °C -3.9 °C 1020.9 hPa Calm     73.8% 0 mm 0 W/m2
00:19 0.2 °C -4.1 °C 1020.9 hPa Calm     73% 0 mm 0 W/m2
00:24 0.2 °C -4.1 °C 1020.9 hPa Calm     73% 0 mm 0 W/m2
00:29 0.2 °C -4.1 °C 1020.9 hPa Calm     72.5% 0 mm 0 W/m2
00:34 0.2 °C -4.1 °C 1020.9 hPa Calm     73% 0 mm 0 W/m2
00:39 0.3 °C -4 °C 1020.9 hPa Calm     73% 0 mm 0 W/m2
00:44 0.3 °C -3.8 °C 1020.9 hPa Calm     73.7% 0 mm 0 W/m2
00:49 0.3 °C -3.7 °C 1020.9 hPa Calm     74.4% 0 mm 0 W/m2
00:54 0.3 °C -3.6 °C 1020.9 hPa Calm     75% 0 mm 0 W/m2
00:59 0.3 °C -3.7 °C 1020.5 hPa Calm     74% 0 mm 0 W/m2
01:04 0.3 °C -3.6 °C 1020.5 hPa Calm     74.6% 0 mm 0 W/m2
01:09 0.3 °C -3.6 °C 1020.5 hPa WSW 0.2 km/h 3.2 km/h 75% 0 mm 0 W/m2
01:14 0.4 °C -3.5 °C 1020.5 hPa Calm   3.2 km/h 75% 0 mm 0 W/m2
01:19 0.4 °C -3.5 °C 1020.5 hPa WSW 0.6 km/h 3.2 km/h 75% 0 mm 0 W/m2
01:24 0.4 °C -3.6 °C 1020.9 hPa WSW 0.3 km/h 3.2 km/h 74.3% 0 mm 0 W/m2
01:29 0.4 °C -3.5 °C 1020.9 hPa Calm   3.2 km/h 74.9% 0 mm 0 W/m2
01:34 0.4 °C -3.5 °C 1020.5 hPa Calm   3.2 km/h 75% 0 mm 0 W/m2
01:39 0.4 °C -3.5 °C 1020.5 hPa WSW 0.5 km/h 4.8 km/h 75% 0 mm 0 W/m2
01:44 0.3 °C -3.6 °C 1020.5 hPa WSW 0.5 km/h 4.8 km/h 75% 0 mm 0 W/m2
01:49 0.3 °C -3.6 °C 1020.5 hPa WSW 0.2 km/h 4.8 km/h 75% 0 mm 0 W/m2
01:54 0.3 °C -3.6 °C 1020.5 hPa WSW 0.2 km/h 4.8 km/h 75% 0 mm 0 W/m2
01:59 0.3 °C -3.6 °C 1020.5 hPa Calm   4.8 km/h 75% 0 mm 0 W/m2
02:04 0.3 °C -3.6 °C 1020.5 hPa WSW 0.3 km/h 4.8 km/h 75% 0 mm 0 W/m2
02:08 0.3 °C -3.7 °C 1020.5 hPa Calm   4.8 km/h 75% 0 mm 0 W/m2
Hartford County Weather
Compliments of Weather Underground - 4 mb